QPF
0.09 0.09 0.10 0.12 0.17 0.19 0.16 0.13 0.16 0.17 0.16 0.16 0.19 0.22 0.13 0.10 0.11 0.13 0.14 0.10 0.09 0.09 0.10 0.09 0.08 0.08 0.09 0.06 0.05 0.04 0.04 0.05 0.08 0.09 0.08 0.09 0.08 0.07 0.07 0.07 0.07 0.09 0.09
0.07 0.06 0.07 0.11 0.13 0.15 0.15 0.15 0.18 0.20 0.19 0.20 0.21 0.20 0.12 0.10 0.13 0.13 0.12 0.11 0.08 0.07 0.06 0.06 0.07 0.07 0.08 0.06 0.06 0.05 0.05 0.06 0.06 0.06 0.07 0.07 0.07 0.06 0.07 0.07 0.08 0.08 0.11
0.06 0.07 0.07 0.08 0.10 0.12 0.17 0.19 0.23 0.24 0.21 0.21 0.20 0.20 0.17 0.13 0.13 0.14 0.10 0.10 0.11 0.09 0.06 0.05 0.06 0.06 0.07 0.05 0.05 0.05 0.05 0.04 0.04 0.04 0.05 0.04 0.05 0.05 0.05 0.06 0.09 0.12 0.12
0.05 0.08 0.06 0.05 0.07 0.08 0.13 0.18 0.23 0.25 0.23 0.18 0.15 0.14 0.16 0.15 0.11 0.10 0.09 0.09 0.11 0.11 0.07 0.05 0.04 0.04 0.05 0.07 0.07 0.07 0.06 0.05 0.04 0.04 0.03 0.02 0.03 0.03 0.04 0.05 0.08 0.13 0.15
0.05 0.07 0.06 0.09 0.07 0.06 0.09 0.12 0.16 0.21 0.18 0.14 0.11 0.09 0.10 0.13 0.14 0.12 0.11 0.09 0.08 0.09 0.07 0.05 0.03 0.03 0.04 0.06 0.08 0.09 0.11 0.11 0.10 0.07 0.04 0.03 0.04 0.03 0.03 0.04 0.06 0.09 0.11
0.04 0.05 0.06 0.09 0.07 0.08 0.09 0.10 0.13 0.12 0.11 0.11 0.08 0.08 0.07 0.07 0.11 0.13 0.14 0.13 0.09 0.07 0.06 0.08 0.05 0.05 0.05 0.05 0.06 0.08 0.08 0.09 0.11 0.09 0.07 0.05 0.05 0.04 0.04 0.03 0.04 0.05 0.08
0.03 0.05 0.05 0.06 0.06 0.08 0.09 0.07 0.07 0.08 0.09 0.08 0.08 0.09 0.07 0.07 0.07 0.11 0.16 0.14 0.09 0.08 0.08 0.11 0.08 0.05 0.04 0.03 0.03 0.04 0.05 0.06 0.05 0.05 0.04 0.05 0.05 0.04 0.04 0.04 0.04 0.03 0.04
0.04 0.04 0.04 0.05 0.06 0.07 0.08 0.07 0.07 0.07 0.07 0.07 0.07 0.08 0.09 0.09 0.07 0.07 0.11 0.12 0.09 0.09 0.09 0.07 0.09 0.06 0.05 0.03 0.03 0.02 0.03 0.05 0.05 0.03 0.03 0.03 0.03 0.03 0.03 0.04 0.05 0.05 0.06
0.04 0.03 0.04 0.05 0.06 0.07 0.09 0.07 0.05 0.06 0.07 0.08 0.08 0.07 0.07 0.09 0.09 0.09 0.11 0.11 0.10 0.10 0.08 0.07 0.06 0.05 0.04 0.03 0.04 0.03 0.03 0.05 0.08 0.09 0.08 0.06 0.04 0.03 0.02 0.02 0.03 0.03 0.04
0.04 0.03 0.03 0.03 0.04 0.03 0.05 0.05 0.04 0.06 0.08 0.07 0.06 0.07 0.06 0.07 0.09 0.09 0.09 0.10 0.10 0.09 0.07 0.07 0.07 0.07 0.05 0.03 0.03 0.02 0.03 0.03 0.04 0.09 0.11 0.07 0.04 0.03 0.02 0.03 0.03 0.03 0.03
0.03 0.03 0.02 0.03 0.03 0.03 0.03 0.04 0.04 0.05 0.07 0.07 0.07 0.07 0.07 0.06 0.07 0.08 0.10 0.09 0.08 0.08 0.07 0.07 0.06 0.09 0.06 0.04 0.04 0.04 0.04 0.05 0.07 0.08 0.07 0.07 0.06 0.05 0.04 0.04 0.04 0.04 0.03
0.02 0.02 0.01 0.02 0.02 0.02 0.03 0.04 0.04 0.05 0.06 0.06 0.07 0.06 0.06 0.06 0.07 0.08 0.09 0.07 0.06 0.06 0.06 0.08 0.08 0.06 0.04 0.04 0.03 0.04 0.05 0.07 0.11 0.12 0.06 0.07 0.07 0.05 0.05 0.06 0.06 0.06 0.05
0.02 0.02 0.02 0.02 0.04 0.04 0.04 0.04 0.05 0.04 0.05 0.05 0.05 0.05 0.06 0.06 0.08 0.09 0.07 0.05 0.03 0.03 0.05 0.07 0.07 0.05 0.04 0.05 0.05 0.03 0.03 0.04 0.05 0.07 0.06 0.07 0.07 0.06 0.05 0.04 0.05 0.05 0.04
0.02 0.02 0.02 0.03 0.03 0.03 0.03 0.04 0.04 0.03 0.04 0.04 0.03 0.04 0.04 0.05 0.07 0.07 0.06 0.05 0.03 0.03 0.03 0.04 0.04 0.03 0.03 0.03 0.04 0.03 0.03 0.03 0.03 0.04 0.05 0.06 0.06 0.06 0.06 0.05 0.04 0.04 0.04
0.03 0.03 0.02 0.02 0.02 0.03 0.03 0.04 0.04 0.04 0.04 0.03 0.03 0.03 0.04 0.05 0.04 0.05 0.06 0.05 0.04 0.04 0.04 0.03 0.03 0.02 0.03 0.03 0.03 0.03 0.04 0.03 0.04 0.06 0.07 0.05 0.04 0.05 0.06 0.06 0.04 0.03 0.03
0.04 0.04 0.04 0.04 0.04 0.04 0.04 0.04 0.04 0.05 0.05 0.04 0.04 0.05 0.05 0.04 0.04 0.04 0.05 0.05 0.05 0.04 0.03 0.02 0.03 0.02 0.02 0.02 0.03 0.03 0.04 0.03 0.03 0.03 0.03 0.03 0.02 0.02 0.05 0.08 0.07 0.05 0.04
0.05 0.06 0.06 0.05 0.05 0.05 0.05 0.05 0.05 0.07 0.07 0.05 0.05 0.05 0.04 0.04 0.03 0.03 0.03 0.04 0.05 0.05 0.04 0.04 0.03 0.03 0.02 0.03 0.02 0.03 0.03 0.03 0.02 0.03 0.02 0.02 0.01 0.02 0.04 0.06 0.07 0.06 0.04
0.04 0.05 0.05 0.05 0.03 0.04 0.04 0.04 0.05 0.06 0.05 0.05 0.06 0.05 0.05 0.04 0.03 0.03 0.03 0.03 0.04 0.05 0.04 0.03 0.04 0.03 0.04 0.03 0.02 0.02 0.02 0.02 0.03 0.03 0.03 0.02 0.02 0.02 0.03 0.04 0.05 0.05 0.05
0.04 0.03 0.04 0.05 0.04 0.04 0.03 0.03 0.04 0.05 0.06 0.08 0.11 0.08 0.05 0.03 0.02 0.03 0.02 0.02 0.03 0.03 0.03 0.03 0.03 0.03 0.03 0.03 0.03 0.03 0.02 0.02 0.01 0.02 0.03 0.03 0.03 0.04 0.04 0.04 0.04 0.04 0.05
0.03 0.03 0.04 0.04 0.04 0.03 0.03 0.02 0.03 0.03 0.04 0.05 0.06 0.05 0.02 0.02 0.02 0.02 0.01 0.02 0.02 0.02 0.03 0.03 0.02 0.02 0.02 0.02 0.03 0.03 0.03 0.02 0.02 0.01 0.01 0.02 0.03 0.04 0.05 0.05 0.04 0.03 0.04
0.04 0.04 0.04 0.04 0.03 0.03 0.02 0.03 0.02 0.03 0.04 0.04 0.04 0.03 0.02 0.01 0.01 0.01 0.01 0.02 0.02 0.03 0.03 0.04 0.03 0.03 0.03 0.03 0.03 0.03 0.04 0.04 0.04 0.03 0.02 0.02 0.03 0.04 0.06 0.05 0.03 0.03 0.04
0.03 0.04 0.03 0.03 0.03 0.02 0.02 0.02 0.02 0.03 0.03 0.04 0.04 0.03 0.03 0.01 0.01 0.01 0.01 0.01 0.02 0.02 0.03 0.04 0.04 0.04 0.04 0.04 0.04 0.04 0.05 0.05 0.05 0.04 0.04 0.03 0.03 0.06 0.08 0.05 0.03 0.03 0.04
0.03 0.04 0.03 0.03 0.03 0.03 0.03 0.03 0.02 0.03 0.04 0.05 0.05 0.04 0.03 0.02 0.02 0.01 0.01 0.01 0.01 0.02 0.02 0.03 0.03 0.03 0.04 0.04 0.05 0.04 0.06 0.06 0.04 0.04 0.04 0.03 0.04 0.07 0.07 0.03 0.02 0.02 0.02
0.06 0.06 0.05 0.05 0.05 0.04 0.04 0.03 0.03 0.03 0.03 0.04 0.05 0.05 0.04 0.04 0.02 0.02 0.01 0.01 0.01 0.01 0.01 0.01 0.01 0.02 0.02 0.03 0.04 0.04 0.05 0.06 0.06 0.05 0.05 0.04 0.04 0.07 0.06 0.02 0.01 0.02 0.02
0.06 0.06 0.06 0.07 0.06 0.06 0.05 0.04 0.04 0.03 0.03 0.03 0.04 0.04 0.04 0.03 0.02 0.01 0.01 0.01 0.01 0.01 0.00 0.00 0.00 0.01 0.00 0.01 0.02 0.03 0.04 0.06 0.05 0.06 0.05 0.04 0.05 0.08 0.07 0.03 0.02 0.02 0.02
0.05 0.04 0.03 0.04 0.04 0.04 0.03 0.02 0.03 0.03 0.04 0.04 0.05 0.04 0.03 0.02 0.01 0.01 0.02 0.02 0.02 0.02 0.01 0.01 0.01 0.01 0.00 0.00 0.01 0.01 0.02 0.04 0.04 0.05 0.03 0.04 0.05 0.08 0.07 0.06 0.04 0.02 0.02
MSLP
1007.87 1008.54 1009.17 1009.80 1010.42 1011.03 1011.60 1012.12 1012.56 1012.93 1013.24 1013.48 1013.70 1013.89 1014.07 1014.24 1014.39 1014.52 1014.63 1014.73 1014.84 1014.99 1015.19 1015.45 1015.75 1016.09 1016.41 1016.68 1016.88 1016.98 1017.00 1016.95 1016.89 1016.85 1016.86 1016.94 1017.08 1017.27 1017.48 1017.68 1017.84 1017.96 1018.05
1008.41 1009.02 1009.64 1010.28 1010.93 1011.56 1012.14 1012.67 1013.12 1013.49 1013.80 1014.06 1014.29 1014.49 1014.67 1014.81 1014.92 1014.98 1015.02 1015.04 1015.09 1015.18 1015.34 1015.58 1015.88 1016.22 1016.56 1016.84 1017.04 1017.14 1017.15 1017.09 1017.00 1016.93 1016.91 1016.96 1017.07 1017.23 1017.41 1017.59 1017.74 1017.85 1017.95
1008.94 1009.49 1010.09 1010.74 1011.39 1012.04 1012.63 1013.16 1013.61 1014.00 1014.33 1014.61 1014.87 1015.10 1015.29 1015.44 1015.52 1015.55 1015.52 1015.47 1015.44 1015.46 1015.57 1015.76 1016.04 1016.37 1016.70 1016.98 1017.19 1017.29 1017.30 1017.24 1017.13 1017.04 1016.99 1017.01 1017.08 1017.21 1017.35 1017.49 1017.62 1017.73 1017.82
1009.42 1009.92 1010.50 1011.14 1011.80 1012.44 1013.03 1013.56 1014.01 1014.40 1014.75 1015.08 1015.38 1015.66 1015.90 1016.08 1016.18 1016.19 1016.14 1016.04 1015.94 1015.89 1015.92 1016.05 1016.27 1016.55 1016.85 1017.12 1017.32 1017.42 1017.43 1017.37 1017.27 1017.17 1017.10 1017.08 1017.12 1017.20 1017.30 1017.41 1017.50 1017.58 1017.66
1009.82 1010.29 1010.85 1011.48 1012.13 1012.76 1013.33 1013.84 1014.28 1014.67 1015.04 1015.41 1015.77 1016.12 1016.44 1016.69 1016.84 1016.89 1016.84 1016.72 1016.58 1016.47 1016.42 1016.46 1016.60 1016.81 1017.05 1017.28 1017.45 1017.54 1017.55 1017.49 1017.40 1017.30 1017.22 1017.19 1017.19 1017.23 1017.29 1017.34 1017.38 1017.42 1017.46
1010.14 1010.58 1011.13 1011.75 1012.38 1012.97 1013.52 1013.99 1014.41 1014.79 1015.17 1015.57 1016.00 1016.43 1016.85 1017.20 1017.45 1017.57 1017.57 1017.48 1017.33 1017.17 1017.05 1017.01 1017.05 1017.17 1017.32 1017.48 1017.60 1017.66 1017.66 1017.61 1017.53 1017.44 1017.36 1017.32 1017.30 1017.31 1017.32 1017.31 1017.29 1017.27 1017.25
1010.39 1010.82 1011.36 1011.95 1012.55 1013.11 1013.61 1014.03 1014.41 1014.76 1015.14 1015.57 1016.05 1016.56 1017.08 1017.55 1017.93 1018.17 1018.27 1018.24 1018.12 1017.95 1017.79 1017.67 1017.62 1017.63 1017.68 1017.74 1017.80 1017.82 1017.80 1017.75 1017.67 1017.60 1017.53 1017.49 1017.46 1017.44 1017.40 1017.34 1017.26 1017.15 1017.05
1010.61 1011.03 1011.55 1012.11 1012.67 1013.18 1013.62 1013.99 1014.30 1014.62 1014.97 1015.40 1015.92 1016.50 1017.11 1017.71 1018.22 1018.60 1018.82 1018.90 1018.85 1018.72 1018.55 1018.39 1018.25 1018.16 1018.11 1018.09 1018.07 1018.03 1017.98 1017.92 1017.86 1017.80 1017.76 1017.72 1017.69 1017.65 1017.57 1017.46 1017.30 1017.11 1016.91
1010.85 1011.25 1011.73 1012.26 1012.77 1013.22 1013.60 1013.89 1014.14 1014.40 1014.71 1015.11 1015.63 1016.25 1016.93 1017.63 1018.27 1018.79 1019.17 1019.37 1019.44 1019.38 1019.24 1019.07 1018.90 1018.74 1018.61 1018.51 1018.41 1018.33 1018.25 1018.18 1018.12 1018.08 1018.05 1018.03 1018.00 1017.94 1017.84 1017.68 1017.45 1017.18 1016.89
1011.14 1011.50 1011.94 1012.42 1012.87 1013.26 1013.57 1013.79 1013.97 1014.15 1014.39 1014.75 1015.23 1015.85 1016.57 1017.33 1018.06 1018.71 1019.23 1019.58 1019.78 1019.83 1019.78 1019.65 1019.48 1019.31 1019.13 1018.98 1018.83 1018.71 1018.61 1018.53 1018.48 1018.45 1018.44 1018.44 1018.41 1018.35 1018.22 1018.02 1017.74 1017.40 1017.02
1011.48 1011.79 1012.18 1012.59 1012.98 1013.31 1013.55 1013.70 1013.81 1013.91 1014.08 1014.36 1014.79 1015.36 1016.06 1016.84 1017.63 1018.37 1019.00 1019.50 1019.83 1020.02 1020.09 1020.05 1019.94 1019.80 1019.63 1019.47 1019.31 1019.17 1019.06 1018.97 1018.93 1018.92 1018.92 1018.93 1018.91 1018.85 1018.71 1018.48 1018.16 1017.77 1017.33
1011.85 1012.11 1012.43 1012.78 1013.10 1013.37 1013.55 1013.64 1013.69 1013.72 1013.81 1014.01 1014.35 1014.85 1015.49 1016.24 1017.03 1017.81 1018.53 1019.13 1019.61 1019.94 1020.15 1020.24 1020.24 1020.18 1020.07 1019.94 1019.81 1019.68 1019.57 1019.50 1019.47 1019.47 1019.48 1019.50 1019.49 1019.42 1019.28 1019.04 1018.70 1018.29 1017.81
1012.24 1012.42 1012.67 1012.95 1013.21 1013.42 1013.55 1013.61 1013.61 1013.59 1013.62 1013.73 1013.98 1014.39 1014.94 1015.61 1016.36 1017.14 1017.89 1018.57 1019.16 1019.63 1019.98 1020.22 1020.36 1020.42 1020.41 1020.36 1020.28 1020.20 1020.13 1020.08 1020.06 1020.06 1020.09 1020.11 1020.11 1020.04 1019.90 1019.67 1019.33 1018.91 1018.42
1012.58 1012.70 1012.87 1013.08 1013.29 1013.45 1013.56 1013.59 1013.57 1013.53 1013.52 1013.57 1013.74 1014.04 1014.48 1015.05 1015.72 1016.45 1017.19 1017.91 1018.57 1019.15 1019.64 1020.03 1020.33 1020.53 1020.65 1020.70 1020.71 1020.69 1020.67 1020.65 1020.65 1020.67 1020.70 1020.73 1020.73 1020.67 1020.54 1020.31 1020.00 1019.59 1019.13
1012.86 1012.91 1013.02 1013.17 1013.33 1013.46 1013.55 1013.59 1013.58 1013.54 1013.52 1013.54 1013.64 1013.86 1014.20 1014.66 1015.23 1015.88 1016.57 1017.28 1017.98 1018.64 1019.23 1019.75 1020.18 1020.53 1020.78 1020.95 1021.06 1021.12 1021.15 1021.18 1021.20 1021.23 1021.27 1021.30 1021.30 1021.25 1021.14 1020.93 1020.65 1020.29 1019.87
1013.07 1013.08 1013.13 1013.22 1013.34 1013.46 1013.55 1013.61 1013.63 1013.63 1013.62 1013.64 1013.71 1013.87 1014.13 1014.49 1014.95 1015.51 1016.13 1016.80 1017.49 1018.18 1018.84 1019.45 1020.00 1020.46 1020.83 1021.12 1021.32 1021.46 1021.55 1021.61 1021.66 1021.71 1021.75 1021.79 1021.80 1021.76 1021.66 1021.50 1021.25 1020.94 1020.58
1013.23 1013.21 1013.23 1013.28 1013.37 1013.48 1013.58 1013.67 1013.73 1013.77 1013.81 1013.86 1013.94 1014.08 1014.28 1014.57 1014.94 1015.40 1015.94 1016.54 1017.19 1017.87 1018.56 1019.22 1019.83 1020.37 1020.83 1021.20 1021.49 1021.69 1021.83 1021.93 1022.01 1022.07 1022.13 1022.17 1022.18 1022.17 1022.10 1021.97 1021.77 1021.53 1021.23
1013.38 1013.35 1013.35 1013.38 1013.45 1013.55 1013.66 1013.77 1013.88 1013.98 1014.08 1014.18 1014.29 1014.43 1014.61 1014.85 1015.16 1015.54 1016.00 1016.53 1017.12 1017.76 1018.42 1019.09 1019.73 1020.31 1020.81 1021.24 1021.57 1021.82 1022.00 1022.13 1022.23 1022.31 1022.37 1022.43 1022.46 1022.47 1022.43 1022.34 1022.20 1022.01 1021.79
1013.56 1013.55 1013.55 1013.57 1013.62 1013.71 1013.82 1013.95 1014.09 1014.24 1014.39 1014.54 1014.70 1014.87 1015.07 1015.29 1015.56 1015.89 1016.28 1016.73 1017.26 1017.83 1018.45 1019.08 1019.70 1020.28 1020.79 1021.23 1021.59 1021.86 1022.07 1022.22 1022.33 1022.43 1022.51 1022.58 1022.64 1022.66 1022.66 1022.61 1022.52 1022.39 1022.23
1013.79 1013.81 1013.83 1013.85 1013.90 1013.97 1014.06 1014.19 1014.34 1014.52 1014.71 1014.91 1015.12 1015.34 1015.56 1015.80 1016.06 1016.35 1016.69 1017.09 1017.55 1018.05 1018.60 1019.17 1019.74 1020.28 1020.77 1021.20 1021.55 1021.83 1022.05 1022.21 1022.34 1022.45 1022.55 1022.64 1022.72 1022.77 1022.80 1022.79 1022.75 1022.67 1022.57
1014.06 1014.14 1014.19 1014.23 1014.26 1014.31 1014.39 1014.49 1014.63 1014.81 1015.02 1015.26 1015.51 1015.77 1016.03 1016.30 1016.57 1016.86 1017.17 1017.53 1017.92 1018.36 1018.84 1019.33 1019.83 1020.32 1020.76 1021.15 1021.48 1021.75 1021.96 1022.13 1022.28 1022.40 1022.52 1022.63 1022.73 1022.81 1022.87 1022.89 1022.88 1022.84 1022.78
1014.34 1014.49 1014.59 1014.65 1014.68 1014.71 1014.75 1014.82 1014.94 1015.10 1015.31 1015.56 1015.84 1016.13 1016.44 1016.74 1017.04 1017.34 1017.65 1017.97 1018.32 1018.69 1019.10 1019.52 1019.95 1020.36 1020.75 1021.09 1021.39 1021.64 1021.85 1022.02 1022.17 1022.31 1022.44 1022.57 1022.69 1022.80 1022.87 1022.92 1022.93 1022.92 1022.88
1014.59 1014.81 1014.97 1015.05 1015.10 1015.11 1015.12 1015.16 1015.24 1015.37 1015.56 1015.81 1016.11 1016.43 1016.77 1017.11 1017.44 1017.76 1018.07 1018.38 1018.69 1019.02 1019.36 1019.71 1020.07 1020.41 1020.74 1021.04 1021.30 1021.52 1021.72 1021.89 1022.05 1022.20 1022.35 1022.49 1022.63 1022.74 1022.84 1022.89 1022.92 1022.91 1022.88
1014.75 1015.05 1015.26 1015.39 1015.45 1015.47 1015.46 1015.47 1015.52 1015.63 1015.80 1016.05 1016.35 1016.70 1017.07 1017.44 1017.80 1018.14 1018.45 1018.75 1019.04 1019.33 1019.61 1019.90 1020.19 1020.47 1020.74 1020.99 1021.22 1021.43 1021.61 1021.78 1021.94 1022.10 1022.25 1022.41 1022.55 1022.67 1022.76 1022.82 1022.84 1022.83 1022.80
1014.81 1015.17 1015.44 1015.61 1015.71 1015.74 1015.75 1015.75 1015.79 1015.89 1016.06 1016.30 1016.61 1016.98 1017.37 1017.76 1018.15 1018.50 1018.82 1019.11 1019.37 1019.62 1019.85 1020.09 1020.32 1020.55 1020.77 1020.98 1021.18 1021.37 1021.54 1021.71 1021.87 1022.03 1022.18 1022.33 1022.47 1022.59 1022.67 1022.72 1022.73 1022.70 1022.65
1014.75 1015.17 1015.49 1015.72 1015.86 1015.94 1015.97 1016.00 1016.05 1016.16 1016.35 1016.61 1016.93 1017.31 1017.72 1018.13 1018.52 1018.88 1019.20 1019.48 1019.71 1019.92 1020.11 1020.30 1020.48 1020.66 1020.84 1021.01 1021.19 1021.36 1021.52 1021.68 1021.84 1022.00 1022.14 1022.28 1022.41 1022.51 1022.57 1022.61 1022.59 1022.55 1022.48
Thickness
5795 5793 5792 5791 5791 5791 5790 5789 5789 5788 5788 5788 5788 5788 5787 5785 5783 5781 5778 5776 5775 5773 5771 5768 5766 5765 5763 5761 5760 5759 5757 5755 5754 5752 5751 5749 5748 5748 5747 5746 5745 5744 5742
5794 5792 5790 5789 5789 5788 5788 5788 5787 5786 5785 5785 5785 5785 5784 5782 5780 5778 5776 5774 5772 5771 5769 5767 5765 5764 5762 5760 5759 5757 5756 5754 5753 5751 5750 5748 5747 5746 5745 5745 5744 5742 5741
5793 5791 5789 5787 5786 5786 5786 5786 5786 5785 5783 5782 5780 5780 5780 5779 5778 5776 5775 5773 5771 5769 5767 5766 5764 5763 5761 5760 5758 5756 5755 5753 5752 5750 5749 5747 5746 5745 5744 5744 5742 5741 5740
5792 5790 5788 5786 5785 5784 5783 5782 5781 5779 5778 5777 5776 5777 5777 5776 5776 5775 5774 5773 5770 5768 5766 5764 5762 5761 5760 5759 5757 5755 5754 5752 5751 5749 5747 5745 5744 5743 5742 5741 5740 5739 5738
5791 5789 5787 5785 5784 5782 5780 5779 5776 5775 5773 5772 5773 5773 5773 5773 5773 5773 5772 5772 5770 5767 5765 5762 5761 5760 5758 5757 5755 5754 5752 5751 5749 5747 5745 5744 5742 5741 5740 5739 5738 5737 5736
5789 5787 5785 5784 5783 5780 5777 5775 5772 5772 5771 5770 5771 5769 5769 5770 5770 5770 5770 5770 5769 5767 5765 5762 5760 5758 5756 5755 5753 5752 5750 5748 5747 5745 5744 5742 5740 5739 5738 5737 5737 5736 5735
5787 5785 5783 5781 5780 5777 5775 5773 5771 5769 5768 5769 5765 5762 5764 5767 5767 5767 5768 5767 5767 5766 5764 5762 5759 5757 5754 5753 5751 5750 5748 5747 5745 5743 5742 5740 5739 5738 5737 5736 5735 5734 5733
5784 5784 5781 5779 5777 5775 5773 5772 5769 5766 5766 5767 5762 5755 5751 5754 5760 5765 5764 5764 5764 5764 5762 5760 5758 5756 5754 5752 5750 5748 5747 5746 5744 5742 5740 5739 5737 5736 5734 5734 5733 5732 5731
5782 5780 5778 5777 5775 5773 5770 5769 5768 5765 5762 5764 5764 5757 5749 5744 5749 5755 5759 5760 5761 5760 5760 5759 5757 5755 5753 5751 5749 5747 5745 5744 5743 5741 5738 5736 5735 5733 5732 5731 5731 5730 5729
5781 5778 5776 5775 5773 5771 5768 5768 5767 5766 5763 5759 5761 5762 5760 5755 5747 5743 5750 5755 5757 5757 5757 5758 5756 5754 5752 5750 5747 5745 5744 5742 5741 5739 5737 5735 5733 5731 5730 5729 5728 5727 5726
5778 5776 5774 5772 5770 5768 5766 5765 5764 5763 5762 5759 5758 5757 5757 5756 5755 5746 5741 5746 5750 5753 5754 5755 5753 5751 5749 5748 5745 5743 5742 5740 5738 5737 5735 5733 5731 5730 5728 5727 5726 5725 5724
5774 5772 5771 5769 5767 5765 5763 5761 5760 5760 5758 5757 5756 5756 5753 5751 5749 5748 5743 5742 5742 5747 5751 5752 5751 5749 5747 5745 5743 5741 5739 5737 5735 5734 5732 5731 5729 5727 5726 5724 5723 5722 5721
5768 5767 5766 5764 5762 5761 5760 5758 5757 5756 5755 5754 5753 5753 5753 5753 5753 5750 5745 5741 5740 5743 5746 5747 5748 5747 5746 5743 5740 5738 5736 5734 5733 5731 5729 5727 5725 5724 5723 5721 5720 5719 5718
5766 5764 5762 5760 5759 5757 5757 5755 5754 5753 5752 5751 5751 5750 5750 5751 5752 5750 5745 5741 5735 5736 5737 5739 5743 5743 5742 5740 5738 5736 5733 5731 5729 5728 5726 5723 5721 5720 5718 5717 5716 5715 5714
5764 5761 5759 5756 5755 5753 5752 5750 5749 5748 5748 5748 5747 5747 5746 5747 5748 5748 5747 5744 5736 5728 5727 5733 5736 5739 5738 5737 5734 5732 5730 5728 5726 5724 5722 5720 5718 5716 5714 5713 5711 5710 5710
5760 5757 5755 5753 5750 5749 5748 5746 5745 5744 5743 5742 5742 5741 5740 5742 5743 5743 5742 5741 5739 5733 5726 5730 5732 5734 5734 5734 5731 5729 5727 5725 5722 5720 5719 5716 5714 5712 5710 5709 5707 5705 5704
5754 5752 5750 5748 5746 5744 5743 5741 5740 5739 5737 5736 5737 5736 5734 5735 5735 5735 5736 5735 5733 5731 5724 5725 5728 5730 5729 5727 5726 5725 5723 5721 5718 5717 5715 5712 5710 5707 5706 5704 5702 5701 5699
5750 5748 5746 5743 5742 5740 5739 5737 5735 5734 5732 5730 5729 5728 5727 5728 5727 5727 5728 5727 5726 5725 5722 5718 5720 5722 5722 5723 5722 5720 5720 5719 5716 5713 5711 5708 5705 5703 5701 5699 5697 5696 5694
5745 5743 5741 5738 5736 5735 5733 5731 5730 5728 5727 5725 5724 5721 5721 5720 5718 5719 5719 5718 5718 5719 5718 5714 5714 5716 5717 5717 5715 5715 5715 5713 5713 5710 5707 5704 5701 5699 5696 5694 5692 5691 5690
5740 5737 5735 5733 5731 5729 5727 5725 5724 5722 5720 5719 5717 5716 5715 5713 5711 5711 5711 5710 5710 5709 5709 5708 5707 5708 5708 5710 5708 5706 5705 5706 5706 5706 5703 5700 5696 5694 5692 5689 5687 5686 5684
5736 5732 5729 5727 5725 5723 5720 5718 5717 5715 5713 5711 5711 5710 5709 5707 5706 5704 5704 5701 5701 5700 5700 5699 5699 5698 5699 5698 5698 5700 5698 5699 5699 5699 5697 5695 5692 5689 5687 5685 5683 5681 5679
5730 5727 5723 5720 5718 5716 5712 5711 5710 5708 5706 5704 5702 5702 5702 5700 5699 5697 5696 5695 5694 5692 5691 5690 5690 5689 5690 5691 5692 5692 5691 5689 5687 5692 5690 5689 5689 5686 5685 5683 5681 5678 5675
5723 5720 5717 5713 5709 5706 5705 5703 5703 5701 5699 5698 5696 5694 5695 5693 5691 5689 5688 5688 5687 5686 5685 5683 5682 5682 5683 5685 5684 5683 5683 5681 5680 5684 5683 5682 5684 5681 5681 5680 5677 5674 5671
5716 5713 5709 5707 5703 5700 5698 5696 5695 5694 5692 5691 5689 5688 5685 5683 5682 5680 5680 5679 5679 5679 5679 5678 5678 5678 5678 5678 5677 5677 5677 5677 5678 5678 5678 5673 5675 5675 5676 5674 5672 5669 5666
5709 5705 5703 5700 5697 5693 5691 5689 5688 5688 5686 5684 5683 5681 5678 5676 5674 5673 5672 5670 5670 5670 5672 5672 5672 5672 5671 5671 5670 5669 5668 5666 5666 5668 5671 5668 5668 5668 5668 5667 5666 5663 5661
5702 5699 5696 5693 5690 5686 5683 5682 5680 5680 5677 5676 5675 5673 5671 5668 5666 5664 5663 5661 5660 5661 5662 5664 5664 5665 5665 5665 5664 5662 5661 5659 5659 5659 5663 5661 5660 5659 5657 5660 5659 5656 5653